GFSMW_sfc_temp_054.txt.gz
Temp
75 74 70 66 66 65 62 60 59 60 60 59 60 60 59 60 61 64 69 71 72 73 75 76 74 76 76 76 73 74 71 73 74 72 71 72 72 72 74 75 75 74 74
73 71 70 69 63 67 63 61 60 61 61 60 60 61 61 62 64 65 68 71 71 74 74 75 74 75 76 74 72 72 71 74 72 71 72 67 70 72 72 74 73 71 72
73 71 69 69 68 67 64 61 61 60 61 60 61 60 59 59 60 63 69 71 73 76 76 74 75 74 75 73 71 71 71 71 71 72 72 67 65 73 74 70 73 71 71
76 74 71 70 70 70 69 65 62 61 60 60 60 58 57 58 61 63 70 73 73 73 75 74 73 73 74 73 73 73 72 72 70 71 73 73 74 69 66 72 71 64 67
77 75 73 73 73 72 70 67 64 63 61 61 61 59 59 61 62 63 64 68 71 73 74 74 73 73 74 72 72 71 70 73 70 71 72 70 71 70 67 65 68 65 61
78 77 76 75 74 73 71 68 65 63 62 61 62 60 61 63 64 61 61 61 63 68 70 73 72 71 72 72 71 72 70 70 71 70 72 70 69 68 67 65 66 62 56
77 76 75 74 73 71 70 69 66 63 63 62 63 64 64 65 67 65 65 65 62 62 64 68 70 70 70 72 73 71 71 70 69 69 69 71 71 70 69 65 58 59 56
77 77 77 75 74 72 70 68 69 69 67 64 64 68 69 70 69 70 71 71 70 71 67 70 71 71 72 72 72 72 72 71 70 69 70 71 71 68 63 55 52 47 50
79 78 78 76 75 73 70 66 69 71 71 69 68 67 69 70 71 72 72 72 73 74 72 71 70 71 71 71 71 71 70 71 70 70 70 69 68 66 61 59 54 51 49
81 80 79 77 76 75 72 67 69 71 73 72 71 71 70 71 72 72 71 72 72 72 71 70 69 71 71 71 70 70 71 71 71 70 68 66 65 60 58 55 55 54 51
81 80 79 78 77 76 74 70 69 71 72 71 71 70 71 71 71 71 71 71 71 71 71 71 71 70 71 71 71 70 71 69 69 67 65 63 63 59 56 55 53 51 51
81 81 79 78 76 75 75 74 71 72 72 72 70 69 70 70 69 69 70 70 70 70 71 71 71 71 73 73 71 69 69 69 67 66 62 59 55 54 54 53 52 51 50
81 80 79 77 76 75 74 75 73 72 73 73 71 69 68 69 69 69 69 70 69 70 70 70 70 69 71 70 68 65 69 68 67 65 59 57 57 54 54 51 49 48 47
79 81 80 79 78 77 75 75 74 73 74 73 71 69 69 69 69 69 69 69 70 69 69 70 70 70 70 69 69 68 67 67 66 65 61 62 59 55 50 48 47 46 44
77 79 79 81 80 78 76 76 76 74 73 72 72 70 70 70 70 69 69 69 69 69 70 70 70 70 70 70 69 69 67 65 61 58 59 61 55 47 48 47 45 44 42
76 78 80 80 78 77 77 77 76 74 73 71 71 72 71 70 69 70 69 69 68 69 69 69 69 69 69 53 48 56 61 60 57 51 50 50 46 43 41 42 42 44 43
71 74 76 78 78 77 74 74 76 77 74 72 72 72 72 70 69 70 70 69 69 69 69 69 69 68 69 45 45 45 60 54 52 48 45 43 42 41 39 37 36 36 36
66 69 73 75 80 81 79 78 80 77 75 72 72 72 71 70 71 70 69 69 69 68 67 66 65 63 64 45 44 42 49 46 45 44 43 40 39 39 37 37 36 37 37
66 68 72 74 76 78 79 74 78 79 76 73 73 74 72 70 70 69 68 68 66 63 57 55 53 51 46 42 40 42 42 39 38 39 39 38 35 35 37 35 34 33 33
68 67 67 70 73 76 78 75 72 74 74 74 74 74 72 71 70 69 65 55 51 43 41 39 40 39 39 38 39 40 37 34 32 32 33 34 34 34 35 35 34 31 32
65 65 64 65 70 73 72 72 72 70 73 73 71 71 71 67 60 54 48 43 39 37 35 34 35 36 37 37 37 37 35 33 31 31 30 31 32 33 34 36 35 34 35
62 63 60 61 63 65 67 69 69 61 61 58 55 52 50 48 47 43 41 41 38 35 33 32 31 32 33 34 35 35 34 33 31 29 30 31 32 32 32 31 31 31 33
59 57 54 53 51 55 61 61 52 52 50 47 45 43 43 42 42 42 40 37 36 34 32 31 29 28 30 30 32 32 31 30 30 31 31 31 31 31 30 29 29 30 33
52 48 45 43 41 43 45 47 47 47 43 40 39 39 38 38 39 38 38 36 34 33 31 30 28 28 28 28 28 29 31 31 31 31 31 30 30 30 28 29 29 31 31
38 41 39 38 38 39 40 41 42 41 38 37 36 35 34 33 31 31 33 33 34 35 32 31 30 27 25 26 29 29 29 29 29 29 29 29 29 29 30 30 30 29 29
33 34 34 33 33 34 36 38 40 40 37 34 34 33 32 32 31 30 29 31 31 31 31 31 30 29 29 30 29 29 28 28 28 29 28 27 28 28 27 26 26 26 24

GFSMW_sfc_temp_057.txt.gz
Temp
83 81 77 76 75 71 65 64 62 62 62 60 59 58 58 59 60 63 70 70 72 73 71 71 71 71 75 75 76 75 74 75 77 75 73 74 75 75 76 76 76 75 76
81 79 76 74 73 70 66 62 62 61 62 62 63 62 60 60 61 62 66 72 73 73 72 72 71 70 74 75 74 73 72 74 75 72 71 66 70 72 73 75 75 74 75
80 78 76 73 71 71 66 62 62 62 64 63 65 63 63 60 59 60 63 68 71 73 72 71 72 71 75 74 73 73 72 71 73 73 72 67 66 71 74 71 73 72 72
83 81 77 75 72 72 70 65 62 63 65 63 61 61 60 59 61 62 64 72 71 71 70 75 75 75 75 75 73 75 73 73 71 71 72 73 72 65 59 71 71 73 72
84 82 79 78 77 75 71 69 62 62 63 64 62 61 62 64 63 62 62 69 70 65 69 75 75 74 75 74 74 72 71 73 71 72 71 70 71 71 67 63 66 69 73
85 84 83 81 78 77 74 68 65 61 62 63 63 62 61 60 61 60 60 68 69 69 68 75 73 73 72 72 72 71 71 71 72 69 71 69 67 67 66 64 67 64 66
84 83 82 80 79 76 74 70 67 64 61 61 61 63 65 61 63 64 63 62 63 65 68 71 71 72 71 70 68 68 69 70 69 69 69 70 70 72 72 67 66 66 65
84 84 83 81 79 77 75 73 70 69 64 62 62 65 67 66 68 66 68 67 64 66 67 71 73 73 73 72 71 71 70 68 68 69 70 70 70 73 72 68 65 60 59
84 83 84 83 80 78 75 74 74 73 70 64 63 63 64 65 68 69 70 70 70 71 70 70 71 72 72 72 71 71 70 71 70 70 70 70 72 73 72 70 68 62 53
86 85 85 84 82 81 79 75 76 75 74 71 67 65 65 66 70 70 71 71 71 72 71 70 70 70 71 71 71 70 71 70 70 71 70 70 71 71 70 67 64 61 57
82 85 86 86 84 83 80 76 75 76 76 74 72 69 69 68 68 70 72 73 73 73 73 73 72 72 72 72 71 70 70 70 70 70 70 69 70 68 65 62 59 57 55
84 85 85 84 84 82 81 78 75 75 76 77 75 72 72 72 70 70 72 73 73 74 74 74 74 73 73 73 72 70 71 70 69 69 68 68 68 66 63 61 57 56 55
84 85 85 83 82 82 81 80 76 75 77 77 76 74 73 73 72 72 73 74 73 73 73 74 73 73 72 72 72 71 71 70 70 69 68 68 66 62 61 57 54 55 52
81 83 84 85 84 82 81 81 80 78 77 78 76 74 73 73 73 73 73 73 73 73 73 73 73 72 73 73 73 73 72 71 69 69 66 64 66 61 59 57 55 53 49
76 77 79 83 85 84 83 82 81 81 79 78 77 75 73 74 73 73 73 73 72 73 73 72 72 72 72 72 71 71 70 67 65 66 69 68 64 54 56 57 55 50 46
71 73 74 77 79 82 85 83 82 81 80 77 77 78 76 74 73 73 72 72 71 72 72 71 71 70 72 57 51 60 69 66 63 62 65 65 51 48 44 44 44 48 45
69 69 71 73 75 78 81 82 84 82 80 79 78 77 77 75 73 73 73 72 71 72 71 70 70 70 71 50 46 46 67 66 65 64 62 51 47 45 44 38 36 36 36
68 69 71 71 73 75 78 80 84 83 81 79 78 78 77 75 75 73 73 71 71 70 70 70 70 69 69 47 45 44 61 62 57 55 51 45 41 41 40 38 36 35 34
69 69 70 70 70 71 75 78 81 82 83 80 79 78 77 76 75 73 72 71 71 70 69 69 68 63 58 43 43 44 44 41 39 40 41 39 37 37 39 35 33 31 31
70 68 68 68 68 68 70 72 77 80 78 82 81 80 79 77 74 73 71 71 69 63 50 42 42 39 41 41 42 43 39 35 33 34 35 35 34 34 35 34 32 29 28
68 66 64 61 59 58 59 62 69 72 79 80 81 79 78 76 75 74 72 56 48 41 37 35 35 36 37 37 38 38 35 33 32 32 31 32 33 34 34 34 32 30 30
64 63 59 55 51 48 48 51 60 66 67 69 69 61 60 58 55 50 46 44 40 36 34 33 32 33 34 34 35 35 34 34 31 30 31 31 32 32 31 30 31 31 32
58 57 54 48 44 41 42 42 46 51 53 54 50 46 45 45 44 42 39 37 37 34 33 32 29 29 31 31 32 33 32 32 30 31 31 31 30 29 28 28 30 32 32
51 50 47 44 37 36 37 38 42 44 42 40 39 39 37 37 38 38 38 36 34 34 32 30 28 28 28 29 30 30 31 31 30 29 29 28 28 27 27 28 29 30 30
42 43 39 39 34 34 34 35 38 39 36 35 34 33 33 32 30 31 32 32 33 33 31 29 29 26 26 28 29 29 28 28 28 28 28 28 28 28 29 29 28 28 29
34 34 32 34 31 31 32 33 35 35 34 32 32 31 30 30 30 29 28 31 31 31 30 30 29 29 30 30 30 30 30 30 30 31 30 29 29 28 28 27 27 28 26

GFSMW_sfc_temp_060.txt.gz
Temp
82 79 77 75 68 66 65 64 62 61 60 59 58 58 58 59 60 61 65 66 67 67 67 66 66 67 66 66 66 66 65 64 65 62 61 61 63 62 63 63 63 65 66
80 78 74 73 71 64 63 64 63 62 61 60 61 60 59 59 60 61 66 66 66 67 68 66 66 66 65 66 65 66 63 64 64 60 59 54 57 61 63 62 63 62 64
78 76 73 71 70 66 63 62 63 62 62 62 61 60 60 59 58 58 62 67 67 69 68 66 65 65 65 64 64 65 64 61 61 63 60 54 52 58 60 61 61 61 61
81 78 74 71 69 68 64 62 62 62 63 63 61 59 58 57 61 60 62 66 67 67 69 68 66 64 64 65 65 67 64 63 60 61 65 61 60 56 53 59 61 61 62
81 78 75 74 72 70 66 62 62 62 63 63 63 61 60 61 62 61 60 63 65 66 67 67 65 65 66 66 65 64 64 63 60 61 59 59 59 60 55 52 56 59 61
82 81 78 76 73 71 67 63 61 62 63 63 63 62 61 60 61 60 60 61 64 64 64 67 66 66 65 65 64 64 63 64 62 61 61 60 58 57 56 53 54 54 58
80 80 77 76 74 71 68 66 61 61 62 61 62 62 62 62 61 61 61 61 62 64 62 63 64 66 66 65 65 63 62 63 62 62 61 61 60 61 61 55 55 54 55
80 81 80 77 75 72 69 66 64 62 61 62 62 62 63 63 62 62 63 62 63 65 66 64 64 65 67 67 65 63 63 63 62 62 63 61 61 62 62 61 55 51 53
80 80 81 78 76 73 71 68 67 66 62 62 63 62 63 62 62 63 64 63 64 66 64 65 65 66 66 66 65 64 63 62 63 64 62 63 64 62 63 62 58 56 51
81 80 81 79 78 76 74 70 70 68 66 62 62 62 63 64 64 64 63 64 64 64 65 64 65 66 66 66 65 64 64 63 64 63 62 63 64 64 62 63 60 58 57
79 81 81 81 80 78 76 72 72 71 69 64 63 62 63 64 64 64 64 64 65 65 65 65 65 65 65 66 65 64 64 64 63 63 63 63 63 62 61 60 60 59 57
80 81 81 81 80 78 77 74 72 72 71 69 64 62 63 63 63 63 65 66 65 66 66 66 67 66 66 66 65 64 66 64 62 63 62 62 64 61 62 61 59 57 56
78 79 80 80 80 79 77 77 73 73 74 73 69 65 63 63 63 63 65 66 67 67 68 68 67 67 66 66 66 66 65 64 64 64 63 63 62 61 61 61 60 58 56
75 74 74 74 75 79 77 77 76 73 73 74 72 68 66 65 65 66 66 66 68 67 68 68 68 68 69 69 68 68 66 65 66 65 65 65 64 62 62 59 59 57 54
71 70 70 71 73 73 74 78 78 76 74 71 73 71 70 69 68 67 67 67 67 68 68 68 68 68 68 69 67 67 65 64 64 64 65 65 62 55 57 59 58 55 53
67 68 70 71 70 70 71 73 75 77 77 73 72 74 72 71 69 69 68 68 67 68 68 67 67 66 68 58 51 59 65 65 64 63 63 62 52 52 48 47 49 53 53
66 66 67 67 68 68 69 69 72 75 76 75 74 74 73 72 70 70 69 68 67 67 66 66 66 65 66 51 49 48 64 63 62 61 60 58 53 49 47 37 37 36 36
65 65 65 65 66 67 66 66 69 71 74 77 76 75 74 73 72 70 68 67 67 66 65 65 65 64 65 49 48 46 58 61 61 57 56 59 47 44 41 37 34 34 34
66 64 64 63 62 59 58 58 61 65 68 70 76 77 75 73 72 70 68 68 66 65 64 65 63 63 62 41 44 45 50 43 38 38 39 39 38 38 40 36 33 31 30
64 62 61 61 57 53 52 52 54 57 59 60 65 69 77 74 72 70 68 67 66 64 57 43 41 39 41 39 40 44 40 35 33 33 33 34 34 35 36 33 32 28 28
61 58 57 55 51 47 46 46 47 48 49 53 59 57 57 69 71 69 67 64 51 41 37 35 35 35 36 37 39 39 36 34 32 32 31 32 34 34 34 33 30 29 30
56 53 51 50 48 44 43 41 41 43 46 48 53 50 48 50 50 48 45 44 41 37 34 33 32 32 33 35 35 35 34 34 32 30 31 32 33 33 32 31 31 31 30
49 48 45 44 43 41 41 37 38 41 42 41 41 41 41 41 42 41 39 37 36 34 32 31 29 29 31 32 33 33 33 32 30 30 30 30 30 30 30 30 30 29 28
39 40 38 37 35 37 37 36 37 39 37 35 34 34 32 33 35 37 38 36 34 32 31 30 28 28 28 29 30 30 30 29 28 27 27 26 27 27 27 27 26 26 26
35 35 33 33 32 34 33 35 35 37 34 33 32 31 31 30 30 30 30 30 31 32 30 28 29 27 26 28 30 28 28 28 28 28 28 27 27 26 25 26 26 26 25
31 30 29 29 30 31 31 33 34 34 32 30 30 29 29 29 29 29 28 31 31 31 31 31 30 30 31 31 31 31 31 31 31 29 27 26 25 24 25 24 23 23 22

GFSMW_sfc_temp_063.txt.gz
Temp
71 70 67 63 60 59 60 61 60 60 60 59 59 59 58 58 59 61 64 64 65 65 64 66 64 63 63 66 67 64 63 60 61 59 56 57 58 59 60 60 63 63 63
69 69 63 62 60 59 59 61 60 59 60 60 60 60 59 59 60 60 61 65 64 66 64 64 63 64 63 62 63 63 61 61 61 59 56 52 55 56 58 57 59 60 64
68 67 64 59 58 58 58 61 60 60 60 60 60 60 59 59 58 59 61 64 64 66 66 65 64 63 64 62 62 62 63 60 60 61 56 50 50 51 54 56 56 57 57
70 68 66 61 58 58 59 62 61 60 61 61 59 58 58 56 59 60 63 64 64 64 65 65 65 63 62 61 61 64 62 60 59 57 61 57 55 51 50 55 55 57 59
69 66 65 65 61 59 58 59 61 61 61 61 60 60 59 60 60 59 59 62 62 63 64 63 63 60 60 60 61 61 65 61 58 57 56 54 54 55 52 50 53 56 57
69 68 67 66 63 59 58 58 59 60 61 61 60 59 59 58 58 55 56 59 62 63 62 64 63 62 61 60 60 61 63 62 60 58 57 57 56 54 53 51 51 52 54
70 68 65 64 64 58 57 57 58 59 61 61 60 59 59 59 58 57 58 59 58 60 61 62 59 60 62 61 61 61 61 61 60 59 59 58 58 58 57 54 53 52 54
70 68 67 66 64 61 58 59 58 60 61 61 60 60 60 59 60 60 60 60 61 62 64 63 63 60 62 62 62 61 62 62 60 60 58 60 60 59 59 56 53 49 50
69 69 69 68 66 64 60 59 58 60 62 61 60 60 62 62 60 61 61 62 63 64 61 63 62 63 63 62 63 62 60 60 60 58 59 59 61 60 62 60 58 56 50
68 70 70 69 68 66 63 61 60 60 61 62 61 62 62 63 63 61 60 61 62 63 64 62 61 62 63 63 62 62 63 60 60 61 59 60 61 60 60 62 60 57 57
67 69 71 71 70 68 64 63 62 61 60 60 62 62 61 62 62 61 61 61 62 62 62 62 62 62 62 63 63 64 64 61 62 62 61 60 62 60 60 58 60 58 58
67 67 68 69 68 68 66 64 64 63 62 60 60 60 62 62 62 62 62 62 61 62 62 63 62 63 63 63 63 62 64 61 60 61 60 60 61 59 60 59 58 59 59
65 65 66 66 67 64 65 67 65 65 66 62 60 59 60 61 62 62 63 64 63 62 62 62 62 63 63 63 63 63 63 63 62 62 60 61 60 59 59 59 59 58 58
64 64 64 64 64 64 64 65 65 66 66 64 61 59 59 60 60 62 63 63 64 62 62 63 63 63 63 64 64 64 63 62 63 62 62 61 61 60 60 58 57 58 57
62 63 61 62 63 63 64 64 64 64 65 65 65 61 61 61 61 61 62 63 63 63 64 63 63 63 63 65 63 63 63 62 62 62 62 62 60 55 58 61 59 57 56
61 61 61 61 61 59 58 58 59 61 65 65 66 67 64 62 61 61 61 62 62 62 63 63 64 63 65 56 50 58 63 63 62 61 61 61 52 52 48 48 50 56 56
58 58 58 58 56 53 53 51 54 58 60 62 65 67 67 65 64 64 63 62 62 63 62 63 64 64 64 51 48 48 64 62 61 60 60 60 59 52 56 39 39 38 39
56 55 55 53 51 49 48 49 52 53 55 54 54 57 59 64 67 65 64 64 64 63 63 63 63 63 64 50 48 45 57 62 63 62 60 60 57 51 45 38 34 33 33
53 54 53 50 47 44 45 47 48 48 49 47 49 52 56 54 54 63 64 65 64 64 63 63 63 63 63 46 46 46 55 57 40 38 40 42 42 39 40 35 31 30 30
51 50 50 47 43 42 43 44 43 44 42 44 46 49 52 49 49 50 56 65 65 63 62 48 42 39 44 38 41 44 47 36 33 33 34 35 36 36 36 33 31 28 28
45 46 45 42 40 41 41 40 40 39 42 44 46 46 45 44 45 45 45 58 54 41 38 36 36 36 37 38 40 41 41 37 33 32 32 33 34 35 34 34 31 29 30
40 40 39 38 37 37 37 36 35 38 40 41 40 38 38 38 40 41 41 42 41 39 37 35 33 32 33 35 35 36 35 35 32 31 32 32 33 33 33 32 32 31 30
36 37 37 35 34 34 34 33 34 37 38 37 35 34 34 34 34 33 35 37 38 36 34 33 31 30 31 32 33 33 33 32 31 31 31 31 31 31 30 31 30 29 28
33 34 33 31 30 32 33 33 34 36 35 33 32 32 31 31 31 32 32 31 33 33 32 31 29 29 29 28 29 29 29 29 28 27 28 27 26 26 26 26 27 26 26
31 31 29 29 29 31 31 33 33 34 32 31 30 30 30 30 29 29 29 29 30 31 29 30 30 28 26 27 29 29 28 27 27 28 27 25 25 24 24 24 23 23 23
28 28 28 28 29 29 29 30 32 32 31 29 28 28 27 28 28 28 27 30 31 31 31 31 31 30 31 31 32 31 31 31 30 27 24 23 23 23 22 20 20 21 21

GFSMW_sfc_temp_066.txt.gz
Temp
67 64 61 59 58 58 58 59 60 60 61 60 60 60 60 60 60 61 64 64 65 65 64 65 64 64 61 63 63 61 62 60 60 58 56 55 56 58 59 59 58 59 59
63 61 59 58 58 58 58 58 60 60 60 60 61 60 60 60 61 60 61 64 63 65 64 64 63 63 61 59 62 62 58 60 61 58 56 52 55 56 57 56 58 58 60
63 60 58 57 57 57 57 58 59 59 60 60 60 58 59 58 58 58 59 61 61 65 66 65 63 63 62 61 60 61 62 60 58 61 57 51 52 52 54 54 55 57 58
67 62 59 57 56 57 58 58 59 59 60 60 59 58 58 56 59 59 60 60 61 62 65 64 63 62 62 60 61 62 60 60 61 57 61 59 55 50 49 52 54 56 57
67 63 59 58 58 57 57 58 58 60 60 60 60 59 58 59 59 60 59 59 59 61 64 64 62 61 61 60 60 60 59 61 58 58 56 55 53 53 50 49 51 52 56
67 66 62 59 57 57 57 57 57 59 60 60 59 59 59 59 58 58 57 58 60 61 61 65 63 61 60 61 60 61 61 61 61 58 56 55 54 52 51 50 50 51 54
66 63 60 57 56 57 57 57 57 57 59 59 59 60 59 58 58 57 59 59 60 60 60 62 61 61 62 61 60 59 59 59 59 58 57 57 57 57 55 53 51 50 51
65 62 62 59 57 57 56 57 56 57 58 59 59 59 59 57 57 58 59 58 60 62 63 62 63 63 63 61 61 59 59 59 58 57 57 59 58 58 57 56 53 49 49
64 63 63 62 58 57 56 57 57 57 58 59 60 58 57 58 58 57 57 59 57 61 62 63 61 61 60 61 60 59 59 59 61 59 58 59 60 59 59 58 55 54 48
64 64 63 63 61 59 58 58 58 58 58 59 60 60 59 59 59 58 57 58 59 58 59 61 61 61 61 60 59 58 59 59 60 60 59 60 61 59 58 59 56 55 58
61 62 63 63 63 60 58 58 58 59 58 59 59 60 61 61 61 60 59 59 59 59 58 59 61 62 61 59 59 59 60 59 60 60 58 59 60 59 58 58 59 58 57
62 62 61 62 63 60 59 57 57 58 59 59 59 59 60 61 61 60 61 60 59 59 60 59 59 60 61 61 60 60 62 60 60 60 59 59 60 58 59 58 57 57 58
60 61 61 61 61 60 60 60 59 58 59 59 59 58 59 59 60 61 61 61 60 60 59 61 60 60 60 61 61 61 61 61 61 61 60 60 60 58 59 58 57 57 57
58 58 58 58 58 58 57 59 60 61 61 59 58 58 58 59 59 61 61 62 62 61 61 60 60 60 61 62 62 62 61 61 61 62 61 61 60 59 59 58 57 58 57
57 57 55 54 53 53 53 54 54 56 59 61 59 58 58 59 60 60 60 61 61 63 63 62 61 61 61 62 61 62 61 61 61 61 62 62 60 55 57 59 59 58 56
55 55 54 51 50 49 48 50 51 52 55 54 54 61 61 60 59 59 59 59 60 61 61 62 61 60 61 54 49 55 60 61 60 59 60 61 52 52 47 47 49 56 56
52 51 49 47 46 45 46 46 48 50 50 50 50 52 53 56 60 61 60 59 59 60 60 61 61 61 61 50 48 47 59 60 59 59 59 59 59 52 57 46 43 37 37
49 47 45 44 43 43 43 45 46 46 45 45 46 48 49 52 52 53 56 60 60 59 59 59 60 60 61 50 47 45 56 59 60 59 59 59 59 58 56 45 36 33 33
47 44 43 41 40 40 42 42 41 41 41 42 43 46 47 47 47 47 48 49 49 58 60 60 59 59 60 50 46 46 56 57 58 60 52 51 56 52 45 39 33 31 31
43 42 40 39 37 38 40 39 38 38 38 40 42 43 42 41 42 43 43 46 46 47 56 60 60 56 59 46 43 46 57 56 53 37 36 37 42 39 40 39 33 29 29
40 40 38 34 34 35 37 36 36 35 39 40 39 38 38 37 39 38 40 42 42 41 41 40 36 37 37 37 40 43 51 49 36 34 32 33 35 36 36 35 33 30 30
36 37 34 33 33 34 35 33 33 37 38 37 36 34 34 34 35 34 35 38 38 36 34 33 32 32 33 34 36 36 36 37 35 32 32 32 33 33 33 32 32 31 30
32 33 32 31 31 33 33 31 33 35 34 33 31 32 32 32 33 32 31 32 34 33 32 31 29 29 30 30 32 33 34 33 32 32 31 32 31 30 29 30 30 29 28
29 31 30 28 28 31 31 32 33 33 31 30 29 30 29 30 30 31 31 30 30 30 30 29 27 27 28 29 29 29 29 29 28 27 27 27 26 25 25 25 25 24 24
28 28 27 27 27 29 29 31 32 33 30 29 29 28 28 28 28 28 29 29 30 30 29 28 29 27 27 28 30 29 27 27 27 26 26 24 23 21 21 21 22 22 22
25 25 26 26 26 27 27 28 31 29 27 26 26 24 25 24 25 26 26 29 29 30 31 31 30 29 30 31 30 30 29 29 27 24 22 20 20 19 19 19 18 19 18